User: anonymous   Login
Location: eljas
(40.1958°N, 6.8661°W)
Time: 01:33:40
(UTC+02:00)
Language:

Okean O Rocket - Orbit

View from above orbital plane
View from above orbital plane
View from above satellite
View from above satellite

Ground track
Ground track

The orbit data is extracted from the following two-line orbital elements,

1 25861U 99039B   14297.96992341  .00001136  00000-0  16516-3 0  7731
2 25861 097.9676 255.2784 0014542 320.2474 081.7701 14.77826745823030
Epoch (UTC): 24 October 2014 23:16:41
Eccentricity: 0.0014542
inclination: 97.9676°
perigee height: 626 km
apogee height: 646 km
right ascension of ascending node: 255.2784°
argument of perigee: 320.2474°
revolutions per day: 14.77826745
mean anomaly at epoch: 81.7701°
orbit number at epoch: 82303

The dashed part of the orbit path shows where the satellite is in the earth's shadow,  

DLR